EW0791 Weather Reports


time (UTC)temp
C
wind
direction
speed
KPH
gust
KPH
rain 1hr
cm
rain 24hr
cm
rain mn
cm
humidity
%
barometer
mb
20220124093338 -7 220 0.0 0.0 0.00 0.00 0.00 91 1010.7
20220124091817 -7 220 0.0 0.0 0.00 0.00 0.00 91 1010.5
20220124090325 -7 221 0.0 0.0 0.00 0.00 0.00 91 1010.3
20220124084832 -7 221 0.0 1.6 0.00 0.00 0.00 90 1010.1
20220124083320 -7 220 0.0 1.6 0.00 0.00 0.00 90 1010.0
20220124081824 -6 220 0.0 1.6 0.00 0.00 0.00 90 1009.8
20220124080332 -6 220 0.0 0.0 0.00 0.00 0.00 89 1009.7
20220124074834 -6 220 0.0 0.0 0.00 0.00 0.00 89 1009.6
20220124073316 -6 220 0.0 0.0 0.00 0.00 0.00 89 1009.7
20220124071813 -6 221 0.0 0.0 0.00 0.00 0.00 87 1009.6
20220124070318 -5 220 0.0 1.6 0.00 0.00 0.00 86 1009.5
20220124064826 -5 220 0.0 1.6 0.00 0.00 0.00 86 1009.5
20220124060313 -4 220 0.0 0.0 0.00 0.00 0.00 83 1009.3
20220124054817 -3 221 0.0 0.0 0.00 0.00 0.00 82 1009.2
20220124053323 -3 221 0.0 1.6 0.00 0.00 0.00 81 1009.2
20220124051831 -3 221 0.0 1.6 0.00 0.00 0.00 80 1009.2
20220124050338 -3 201 0.0 3.2 0.00 0.00 0.00 80 1009.2
20220124044837 -2 243 0.0 1.6 0.00 0.00 0.00 79 1009.2
20220124043317 -2 221 0.0 3.2 0.00 0.00 0.00 79 1009.6
20220124041824 -2 258 0.0 1.6 0.00 0.00 0.00 78 1009.4
20220124040332 -2 20 0.0 1.6 0.00 0.00 0.00 78 1009.4
20220124034837 -2 289 0.0 3.2 0.00 0.00 0.00 77 1009.5
20220124033320 -2 216 1.6 9.7 0.00 0.00 0.00 77 1009.4
20220124031825 -2 269 1.6 8.0 0.00 0.00 0.00 78 1009.7
20220124030332 -2 202 3.2 8.0 0.00 0.00 0.00 77 1009.5
20220124024838 -2 198 3.2 6.4 0.00 0.00 0.00 77 1009.5
20220124023326 -2 217 3.2 4.8 0.00 0.00 0.00 77 1009.8
20220124021832 -2 272 3.2 11.3 0.00 0.00 0.00 76 1009.7
20220124020337 -1 287 3.2 9.7 0.00 0.00 0.00 71 1009.6
20220124014816 -1 269 3.2 8.0 0.00 0.00 0.00 70 1009.6
20220124013322 -1 181 3.2 9.7 0.00 0.00 0.00 69 1009.7
20220124011827 -1 136 1.6 9.7 0.00 0.00 0.00 68 1009.6
20220124010337 -1 233 3.2 12.9 0.00 0.00 0.00 66 1009.4
20220124004841 -1 285 3.2 9.7 0.00 0.00 0.00 65 1009.4
20220124003315 -1 293 3.2 9.7 0.00 0.00 0.00 64 1009.2
20220124001824 -1 259 1.6 6.4 0.00 0.00 0.00 62 1009.1
20220124000328 -1 266 4.8 9.7 0.00 0.00 0.00 60 1009.0
20220123234834 -1 246 3.2 6.4 0.00 0.00 0.00 59 1009.0
20220123233339 -1 249 3.2 6.4 0.00 0.00 0.00 57 1008.9
20220123231820 -1 276 3.2 9.7 0.00 0.00 0.00 54 1008.9
20220123230327 -1 222 1.6 3.2 0.00 0.00 0.00 53 1008.9
20220123224835 -1 295 3.2 4.8 0.00 0.00 0.00 53 1008.8
20220123223315 -1 255 1.6 4.8 0.00 0.00 0.00 53 1008.6
20220123221823 -1 278 0.0 4.8 0.00 0.00 0.00 52 1008.6
20220123220326 0 271 1.6 8.0 0.00 0.00 0.00 52 1008.5
20220123214834 0 282 4.8 9.7 0.00 0.00 0.00 51 1008.4
20220123213316 0 223 3.2 9.7 0.00 0.00 0.00 50 1008.2
20220123211818 0 224 3.2 14.5 0.00 0.00 0.00 49 1008.2
20220123210332 0 194 4.8 16.1 0.00 0.00 0.00 48 1008.1
20220123204839 0 217 8.0 16.1 0.00 0.00 0.00 47 1008.0
20220123203320 0 220 8.0 17.7 0.00 0.00 0.00 46 1007.8
20220123201828 0 322 4.8 14.5 0.00 0.00 0.00 46 1008.0
20220123200337 0 256 8.0 12.9 0.00 0.00 0.00 45 1008.0
20220123194814 0 226 6.4 16.1 0.00 0.00 0.00 45 1008.2
20220123193315 1 248 4.8 22.5 0.00 0.00 0.00 45 1008.1
20220123191826 1 292 1.6 9.7 0.00 0.00 0.00 45 1008.4
20220123190332 1 302 4.8 12.9 0.00 0.00 0.00 44 1008.4
20220123184840 1 179 4.8 17.7 0.00 0.00 0.00 44 1008.5
20220123183321 0 325 6.4 12.9 0.00 0.00 0.00 44 1008.6
20220123181827 0 198 6.4 17.7 0.00 0.00 0.00 44 1008.7
20220123180334 0 225 4.8 12.9 0.00 0.00 0.00 45 1009.0
20220123174817 0 201 12.9 19.3 0.00 0.00 0.00 44 1009.4
20220123173332 0 311 6.4 16.1 0.00 0.00 0.00 46 1009.5
20220123171839 0 198 4.8 14.5 0.00 0.00 0.00 46 1009.8
20220123170315 0 215 8.0 16.1 0.00 0.00 0.00 46 1010.0
20220123164819 0 229 3.2 12.9 0.00 0.00 0.00 48 1010.3
20220123163327 -1 258 3.2 16.1 0.00 0.00 0.00 50 1010.6
20220123161834 -1 223 8.0 17.7 0.00 0.00 0.00 50 1011.1
20220123160339 -2 262 8.0 16.1 0.00 0.00 0.00 52 1011.6
20220123154838 -2 224 4.8 12.9 0.00 0.00 0.00 54 1011.9
20220123153335 -3 175 4.8 14.5 0.00 0.00 0.00 56 1012.2
20220123151816 -3 229 3.2 11.3 0.00 0.00 0.00 56 1012.1
20220123150340 -4 273 3.2 11.3 0.00 0.00 0.00 58 1012.3
20220123144816 -5 195 6.4 14.5 0.00 0.00 0.00 59 1012.4
20220123143318 -5 235 3.2 12.9 0.00 0.00 0.00 61 1012.4
20220123141826 -5 226 0.0 9.7 0.00 0.00 0.00 63 1012.6
20220123140331 -6 173 1.6 9.7 0.00 0.00 0.00 65 1012.7
20220123134839 -6 212 3.2 9.7 0.00 0.00 0.00 65 1012.9
20220123133319 -6 234 4.8 11.3 0.00 0.00 0.00 67 1012.9
20220123131827 -6 226 3.2 6.4 0.00 0.00 0.00 69 1013.1
20220123130329 -7 221 3.2 8.0 0.00 0.00 0.00 70 1013.3
20220123124838 -7 160 1.6 6.4 0.00 0.00 0.00 72 1013.4
20220123123318 -7 176 3.2 6.4 0.00 0.00 0.00 73 1013.5
20220123121827 -7 239 3.2 8.0 0.00 0.00 0.00 74 1013.5
20220123120338 -7 204 3.2 6.4 0.00 0.00 0.00 75 1013.6
20220123114830 -7 210 3.2 8.0 0.00 0.00 0.00 76 1013.7
20220123113339 -7 207 3.2 6.4 0.00 0.00 0.00 78 1014.0
20220123111819 -8 213 3.2 8.0 0.00 0.00 0.00 79 1013.8
20220123110329 -8 202 3.2 4.8 0.00 0.00 0.00 80 1013.6
20220123104836 -8 222 1.6 3.2 0.00 0.00 0.00 81 1013.5
20220123103316 -8 212 3.2 6.4 0.00 0.00 0.00 82 1013.4
20220123101824 -8 195 1.6 3.2 0.00 0.00 0.00 83 1013.4
20220123100334 -8 182 0.0 3.2 0.00 0.00 0.00 84 1013.7
20220123094815 -9 179 0.0 3.2 0.00 0.00 0.00 85 1013.9